Regional Weather Roundup
Issued by NWS

Home | Current Version | Previous Version | Graphics & Text | Print | Product List | Glossary On
Versions: 1 2 3 4 5 6 7 8 9 10 11 12 13 14 15 16 17 18 19 20 21 22 23 24 25 26 27 28 29 30 31 32 33 34 35 36 37 38 39 40 41 42 43 44 45 46 47 48 49 50
000
ASUS45 KBOU 201607
RWRCO

WEATHER ROUNDUP FOR COLORADO
NATIONAL WEATHER SERVICE DENVER/BOULDER CO
1000 AM MDT THU JUL 20 2017

NOTE: "FAIR" INDICATES FEW OR NO CLOUDS BELOW 12000 FEET WITH NO
SIGNIFICANT WEATHER AND/OR OBSTRUCTIONS TO VISIBILITY.

COZ001>005-013-030-031-201700-
...NORTHWEST COLORADO...

CITY           SKY/WX    TMP DP  RH WIND       PRES   REMARKS
CRAIG          FAIR      75  54  47 N5        30.31F
HAYDEN         FAIR      72  50  46 SE7       30.34S
MEEKER         FAIR      71  57  61 SE3       30.32F
RABBIT EARS PA FAIR      61  45  55 W6        30.63S
STEAMBOAT SPGS FAIR      70  53  55 N3        30.35F
WALDEN         FAIR      70  50  49 SE3       30.44F
$$

COZ006>008-011-201700-
...WEST CENTRAL VALLEYS...

CITY           SKY/WX    TMP DP  RH WIND       PRES   REMARKS
GRAND JUNCTION FAIR      80  58  46 SE14      30.21S
MONTROSE       NOT AVBL
EAGLE          SUNNY     68  54  60 CALM      30.37F
RIFLE          FAIR      74  56  53 CALM      30.27F
DELTA          FAIR      79  57  46 E3        30.25F
NUCLA          FAIR      81  45  28 CALM      30.31F
$$

COZ017>023-064>068-201700-
...SOUTHWEST COLORADO...

CITY           SKY/WX    TMP DP  RH WIND       PRES   REMARKS
DURANGO        FAIR      74  47  38 E6        30.36F
CORTEZ         FAIR      80  52  37 SW6       30.29S
PAGOSA SPRINGS FAIR      72  44  36 CALM      30.45S
TELLURIDE      FAIR      69  49  48 CALM      30.53F
WOLF CREEK PAS PTSUNNY   52  43  71 SW3       30.80S
$$

COZ009-010-012-014-032>034-037-058>063-201700-
...CENTRAL COLORADO...

CITY           SKY/WX    TMP DP  RH WIND       PRES   REMARKS
ASPEN          FAIR      69  52  54 N5        30.41F
BUENA VISTA    FAIR      69  46  44 E3        30.45F
COPPER MTN     FAIR      61  41  48 W6        30.76S
BERTHOUD PASS  FAIR      54  37  54 W20       30.77F
COTTONWOOD PAS FAIR      66  46  48 CALM      30.59F
GUNNISON       FAIR      67  50  54 N3        30.45F
KREMMLING      FAIR      73  54  49 CALM      30.41F
LEADVILLE      FAIR      60  45  57 CALM      30.55F
MONARCH PASS   FAIR      57  43  58 SW7       30.86S
SALIDA         FAIR      72  48  42 N6        30.48F
SUNLIGHT       FAIR      61  46  59 S3        30.68S
WILKERSON PASS FAIR      59  41  51 SW5       30.72F
$$

COZ069>075-201700-
...SAN LUIS VALLEY/SANGRE DE CRISTO MOUNTAINS...

CITY           SKY/WX    TMP DP  RH WIND       PRES   REMARKS
ALAMOSA        FAIR      70  50  49 VRB6      30.42F
DEL NORTE      FAIR      70  50  48 E3        30.46F
LA VETA PASS   NOT AVBL
SAGUACHE         N/A    N/A N/A N/A MISG        N/A
$$

COZ035-036-038>040-201700-
...NORTHERN COLORADO FRONT RANGE...

CITY           SKY/WX    TMP DP  RH WIND       PRES   REMARKS
DENVER INTL AP FAIR      78  56  46 NE6       30.24F
DMNS CITY PARK   N/A     81  54  39 N3        30.24S
AURORA         MOSUNNY   76  55  47 NW3       30.26F
FRONT RANGE AP FAIR      77  55  47 CALM      30.25F
ERIE MUNI ARPT FAIR      79  53  41 CALM      30.23F
BOULDER MUN AP FAIR      79  54  41 CALM      30.24S
CENTENNIAL     FAIR      75  56  51 N5        30.27F
BROOMFIELD     FAIR      77  52  41 NE3       30.26F
FORT COLLINS   FAIR      78  57  48 S6        30.23F
LONGMONT       FAIR      81  56  42 E5        30.24F
$$

COZ041-046-047-076>085-087-088-201700-
...PIKES PEAK/PALMER DIVIDE AND SOUTHERN FOOTHILLS...

CITY           SKY/WX    TMP DP  RH WIND       PRES   REMARKS
COLO. SPRINGS  FAIR      81  55  40 CALM      30.28F
A. F. ACADEMY  FAIR      78  52  40 N5        30.29F
SCHRIEVER AFB  FAIR      80  51  36 N8        30.28F
CHEYENNE MTN   FAIR      76  55  47 E3        30.29F
ELLICOTT       FAIR     N/A N/A N/A N9        30.26S
FALCON           N/A     79  48  34 N6        30.34F
FORT CARSON    FAIR      79  54  41 S5        30.26S
LIMON          FAIR      78  60  53 NW13      30.22F
MONUMENT HILL  FAIR      72  50  46 N6        30.37S
CANON CITY     SUNNY     84  57  39 W8        30.22F
WALSENBURG     FAIR      84  48  28 SE5       30.28F
TRINIDAD       FAIR      82  50  32 VRB3      30.28F
$$

COZ042>045-048>051-090-091-201700-
...NORTHEAST COLORADO...

CITY           SKY/WX    TMP DP  RH WIND       PRES   REMARKS
GREELEY ARPT   FAIR      75  60  59 NW3       30.22F
AKRON          FAIR      82  57  42 N8        30.17S
BURLINGTON     FAIR      81  65  58 N7        30.11S
WRAY           NOT AVBL
YUMA           FAIR      79  55  44 N6        30.12S
STERLING       FAIR      79  63  57 NE5       30.14S
HOLYOKE        FAIR      81  63  54 NE7       30.10S
FORT MORGAN    FAIR      79  58  48 CALM      30.19F
$$

COZ086-089-092>099-201700-
...SOUTHEAST COLORADO...

CITY           SKY/WX    TMP DP  RH WIND       PRES   REMARKS
PUEBLO         FAIR      85  52  32 VRB6      30.17F
LA JUNTA       FAIR      83  60  45 CALM      30.16R
LAMAR          FAIR      82  61  48 VRB3      30.09S
SPRINGFIELD      N/A     85  56  37 SW10G18   30.15F
$$



USA.gov is the U.S. government's official web portal to all federal, state and local government web resources and services.